Tracking 28565 objects as of 3-Mar-2024
HD Live streaming from Space Station
objects crossing your sky now

ST5-B

Track ST5-B now!
10-day predictions
ST5-B is classified as:


NORAD ID: 28981
Int'l Code: 2006-008B
Perigee: 260.7 km
Apogee: 1,712.5 km
Inclination: 105.4 °
Period: 104.7 minutes
Semi major axis: 7357 km
RCS: 0.3032 m2 (medium)
Launch date: March 22, 2006
Source: United States (US)
Launch site: Pegasus launched from Western Range Air Space (WRAS)
Your satellite tracking list
Your tracking list is empty




NASA's NSSDC Master Catalog

Two Line Element Set (TLE):
1 28981U 06008B   24062.89501884  .00116661  59883-5  13628-2 0  9990
2 28981 105.4476  74.7373 0986579  11.7118 350.5259 13.75626805768981
Source of the keplerian elements: AFSPC